[[{"header":{"parameterUnit":"m.s-1","parameterCategory":1,"la1":30.2991,"la2":30.254,"lo1":-89.0895,"lo2":-89.0444,"dy":0.0017,"dx":0.0017,"nx":28,"ny":28,"refTime":"2025-01-02T09:00:00:Z","depth":0,"parameterNumber":2,"parameterNumberName":"U-component_of_WINDS"},"data":[0,0,0,0,0,0,0,0,0,0,0,0,0,0,0,0,0,0,0,0,0,0,0,0,0,0,0,0,0,0,0,0,0,0,0,0,0,0,0,0,0,0,0,0,0,0,0,0,0,0,0,0,0,0,0,0,0,0,0.1037,0.1037,0,0.1079,0.108,0.108,0.1133,0.1134,0.1135,0.1136,0.118,0.118,0.1181,0,0,0,0,0,0,0,0,0,0,0,0,0,0.1003,0.1003,0.1037,0.1037,0.1038,0.1079,0.108,0.108,0.1133,0.1134,0.1135,0.1136,0.118,0.118,0.1181,0,0,0,0,0,0,0,0,0,0,0,0,0,0.1029,0.1003,0.1037,0.1069,0.1072,0.1079,0.108,0.108,0.1133,0.1134,0.1136,0.1137,0.118,0.118,0.1181,0.1159,0,0,0.1183,0.1183,0,0,0,0,0,0,0,0,0.1027,0.103,0.1064,0.1067,0.1071,0.1102,0.1084,0.1107,0.1133,0.111,0.1136,0.1137,0.1153,0.1156,0.1161,0.1161,0.1163,0.1183,0.1183,0.1183,0.1183,0,0,0,0,0,0,0,0.1025,0.1028,0.1053,0.1064,0.1068,0.1082,0.1087,0.1088,0.1124,0.1112,0.1116,0.112,0.1155,0.116,0.1163,0.1163,0.1183,0.1183,0.1183,0.1184,0.1148,0.1147,0,0,0,0,0,0,0.1018,0.1026,0.1052,0.1055,0.1052,0.1082,0.1087,0.1091,0.1124,0.113,0.1119,0.1123,0.1159,0.1162,0.1164,0.1141,0.1183,0.1184,0.1184,0.1149,0.1148,0.1146,0,0,0,0,0,0,0.1017,0.102,0.105,0.1042,0.1047,0.1081,0.1084,0.1091,0.1096,0.1129,0.1136,0.1118,0.116,0.1164,0.116,0.1143,0.1184,0.1185,0.1151,0.1149,0.1147,0.1093,0,0,0,0,0,0,0.1016,0.1019,0.1011,0.1041,0.1047,0.1045,0.1083,0.1091,0.1097,0.1102,0.113,0.1136,0.1161,0.1159,0.116,0.1144,0.1185,0.1152,0.115,0.1147,0.1096,0.109,0.1084,0,0,0,0,0,0.1015,0.0994,0.101,0.1013,0.1037,0.1043,0.1047,0.1076,0.1095,0.1087,0.1109,0.1135,0.1145,0.1158,0.116,0.1144,0.1153,0.115,0.1148,0.1099,0.1091,0.1084,0,0,0,0,0,0,0.0962,0.0999,0.1017,0.1006,0.1021,0.1052,0.1043,0.1066,0.1077,0.1081,0.1117,0.1123,0.1115,0.113,0.1144,0.1125,0.1153,0.115,0.1115,0.1108,0.1101,0.1098,0.1185,0,0,0,0,0,0.0949,0.095,0.0983,0.097,0.0977,0.1008,0.1012,0.1034,0.1051,0.1058,0.1079,0.1096,0.1103,0.1106,0.1114,0.1099,0.1106,0.109,0.1083,0.1078,0.1075,0.1068,0.1061,0.1137,0.1137,0.1137,0,0,0.0921,0.0942,0.0941,0.096,0.0974,0.0975,0.1014,0.1013,0.1015,0.1058,0.1056,0.1072,0.1093,0.1083,0.108,0.1095,0.1056,0.1074,0.1069,0.1069,0.1064,0.1057,0.1051,0.1135,0.1135,0.1135,0,0,0.0873,0.0889,0.0879,0.0893,0.0914,0.0936,0.0934,0.0962,0.0974,0.0972,0.1005,0.1008,0.1019,0.1032,0.104,0.0997,0.1022,0.0999,0.0965,0.0958,0.0952,0.0947,0.0931,0.0925,0.0996,0.0996,0.0996,0,0.0836,0.0839,0.0872,0.0869,0.0877,0.0916,0.0907,0.0919,0.0942,0.0946,0.0963,0.0978,0.0994,0.0988,0.0978,0.0984,0.0982,0.0996,0.095,0.0945,0.0941,0.0927,0.0921,0.0993,0.0994,0.0994,0.0994,0,0.0794,0.0795,0.0785,0.0806,0.0813,0.0807,0.0839,0.0841,0.0863,0.0882,0.088,0.0902,0.0915,0.0916,0.0936,0.0913,0.0921,0.0943,0.0972,0.093,0.0917,0.0912,0.0989,0.099,0.0991,0.0992,0,0,0.0711,0.0751,0.0746,0.0756,0.0783,0.0785,0.0782,0.0795,0.0796,0.0811,0.0809,0.0818,0.0839,0.0848,0.0871,0.0865,0.0829,0.0888,0.0889,0.0876,0.0804,0.0787,0.078,0.0846,0.0845,0.0844,0.0802,0,0.0667,0.0663,0.0692,0.068,0.0682,0.072,0.0717,0.0733,0.0752,0.0757,0.0778,0.0783,0.0811,0.0816,0.0812,0.0834,0.0815,0.0838,0.0844,0.0844,0.0837,0.0773,0.0754,0.0714,0.0797,0.0797,0.0796,0,0.0614,0.0626,0.0614,0.0642,0.0644,0.064,0.0655,0.0659,0.0678,0.0693,0.0703,0.0729,0.0728,0.0756,0.0756,0.077,0.0775,0.0786,0.0786,0.0786,0.0817,0.0771,0.0701,0.0695,0.0788,0.0789,0.079,0,0.0555,0.0568,0.0562,0.057,0.0602,0.0599,0.0612,0.0633,0.0639,0.0652,0.0656,0.0669,0.0675,0.0685,0.0714,0.0732,0.071,0.074,0.0721,0.072,0.0714,0.0714,0.0643,0.0718,0.0718,0.0719,0.0719,0,0.0502,0.0493,0.0536,0.0532,0.0524,0.0558,0.0548,0.0566,0.0584,0.0585,0.0619,0.0619,0.0658,0.0663,0.0686,0.0682,0.0685,0.0696,0.0702,0.0692,0.0691,0.0695,0.0698,0.0717,0.0717,0.0718,0.0718,0,0.0433,0.0462,0.0458,0.0489,0.0497,0.0489,0.0516,0.0514,0.0536,0.0536,0.0538,0.0572,0.0579,0.0609,0.0624,0.064,0.0627,0.064,0.062,0.0624,0.0603,0.0604,0.0532,0.0524,0.0605,0.0604,0.0603,0,0.0397,0.0391,0.0421,0.0424,0.0436,0.044,0.0446,0.048,0.0486,0.0508,0.0503,0.0513,0.0523,0.0533,0.0559,0.057,0.0583,0.0557,0.0585,0.0575,0.0582,0.0581,0.0581,0.055,0.0549,0.0548,0.0548,0,0.0329,0.0344,0.0351,0.0364,0.037,0.0382,0.0395,0.0396,0.0434,0.0438,0.0445,0.0453,0.0468,0.0477,0.0493,0.0508,0.0534,0.0539,0.0535,0.0524,0.0513,0.0518,0.0603,0.054,0.0541,0.0541,0.0542,0.0542,0.0275,0.0272,0.0293,0.03,0.0314,0.0326,0.0325,0.0347,0.0354,0.0368,0.0388,0.0393,0.0414,0.0438,0.0451,0.0455,0.047,0.0464,0.0463,0.0461,0.0456,0.0513,0.0459,0.0459,0.0459,0.0459,0.046,0,0.0209,0.0224,0.0231,0.0249,0.0254,0.0279,0.0295,0.0298,0.0302,0.0319,0.0328,0.0337,0.0347,0.0374,0.0386,0.0385,0.0397,0.0387,0.0387,0.039,0.0442,0.0444,0.0377,0.0377,0.0377,0.0377,0.0377,0.0377,0.0175,0.017,0.0187,0.0189,0.0205,0.021,0.0217,0.0229,0.0243,0.0251,0.0259,0.0276,0.0298,0.0312,0.0322,0.033,0.0332,0.0318,0.0329,0.0378,0.0386,0.0393,0.0395,0.0318,0.0318,0.0276,0.0276,0.0275]},{"header":{"parameterUnit":"m.s-1","parameterCategory":1,"la1":30.2991,"la2":30.254,"lo1":-89.0895,"lo2":-89.0444,"dy":0.0017,"dx":0.0017,"nx":28,"ny":28,"refTime":"2025-01-02T09:00:00:Z","depth":0,"parameterNumber":3,"parameterNumberName":"V-component_of_WINDS"},"data":[0,0,0,0,0,0,0,0,0,0,0,0,0,0,0,0,0,0,0,0,0,0,0,0,0,0,0,0,0,0,0,0,0,0,0,0,0,0,0,0,0,0,0,0,0,0,0,0,0,0,0,0,0,0,0,0,0,0,-3.282,-3.2821,0,-3.2859,-3.2859,-3.286,-3.2858,-3.2857,-3.2857,-3.2856,-3.2892,-3.2893,-3.2895,0,0,0,0,0,0,0,0,0,0,0,0,0,-3.2742,-3.2743,-3.282,-3.2821,-3.2821,-3.2859,-3.286,-3.286,-3.2858,-3.2857,-3.2857,-3.2856,-3.2891,-3.2893,-3.2895,0,0,0,0,0,0,0,0,0,0,0,0,0,-3.2778,-3.2744,-3.282,-3.2825,-3.2826,-3.2859,-3.286,-3.286,-3.2858,-3.2857,-3.2857,-3.2856,-3.2891,-3.2893,-3.2895,-3.2924,0,0,-3.2902,-3.2903,0,0,0,0,0,0,0,0,-3.2776,-3.278,-3.2824,-3.2825,-3.2826,-3.2853,-3.2845,-3.2882,-3.2858,-3.2846,-3.2856,-3.2855,-3.2879,-3.2882,-3.2891,-3.2926,-3.2928,-3.2902,-3.2903,-3.2904,-3.2905,0,0,0,0,0,0,0,-3.2773,-3.2779,-3.2835,-3.2824,-3.2826,-3.2824,-3.2828,-3.2852,-3.2866,-3.2847,-3.2847,-3.2852,-3.288,-3.2889,-3.2892,-3.2928,-3.2902,-3.2904,-3.2905,-3.2906,-3.2992,-3.2993,0,0,0,0,0,0,-3.277,-3.2777,-3.2834,-3.2837,-3.2798,-3.2826,-3.2831,-3.2845,-3.2866,-3.2869,-3.2852,-3.2851,-3.2886,-3.2889,-3.2893,-3.2931,-3.2904,-3.2906,-3.2907,-3.2991,-3.2992,-3.2993,0,0,0,0,0,0,-3.2768,-3.2775,-3.2833,-3.2807,-3.2814,-3.2829,-3.2844,-3.2846,-3.2856,-3.287,-3.2873,-3.286,-3.2885,-3.289,-3.2918,-3.2932,-3.2907,-3.2909,-3.299,-3.2991,-3.2993,-3.3007,0,0,0,0,0,0,-3.2766,-3.2775,-3.2787,-3.2807,-3.2815,-3.2857,-3.2845,-3.2847,-3.286,-3.2859,-3.2878,-3.288,-3.2885,-3.2914,-3.292,-3.2935,-3.2911,-3.2988,-3.299,-3.2992,-3.3005,-3.3008,-3.3011,0,0,0,0,0,-3.2763,-3.2787,-3.2787,-3.2794,-3.2831,-3.2858,-3.2863,-3.2869,-3.2861,-3.2873,-3.2883,-3.288,-3.293,-3.2917,-3.2923,-3.2939,-3.2987,-3.299,-3.2992,-3.3003,-3.3008,-3.3011,0,0,0,0,0,0,-3.2766,-3.279,-3.279,-3.2822,-3.2838,-3.2858,-3.2873,-3.2873,-3.2891,-3.2889,-3.2895,-3.2899,-3.2928,-3.2936,-3.2921,-3.297,-3.2957,-3.2961,-3.2964,-3.2968,-3.2971,-3.2969,-3.2912,0,0,0,0,0,-3.2771,-3.2792,-3.2811,-3.2837,-3.2846,-3.2858,-3.287,-3.2874,-3.2891,-3.2897,-3.2909,-3.2924,-3.2944,-3.2956,-3.2974,-3.3006,-3.301,-3.302,-3.3023,-3.3025,-3.3029,-3.3048,-3.3053,-3.3,-3.3,-3.3,0,0,-3.278,-3.2795,-3.2808,-3.2838,-3.2852,-3.2873,-3.2864,-3.2886,-3.2903,-3.29,-3.2928,-3.2937,-3.2954,-3.2985,-3.2998,-3.2992,-3.3045,-3.3028,-3.303,-3.3032,-3.3051,-3.3056,-3.306,-3.3002,-3.3002,-3.3001,0,0,-3.2808,-3.2821,-3.2846,-3.286,-3.2881,-3.289,-3.2896,-3.2916,-3.2923,-3.2951,-3.295,-3.2968,-3.3001,-3.3015,-3.3026,-3.3061,-3.3059,-3.3067,-3.3084,-3.3103,-3.3107,-3.3111,-3.3125,-3.313,-3.307,-3.307,-3.307,0,-3.2816,-3.285,-3.2858,-3.2882,-3.2896,-3.2897,-3.2922,-3.2934,-3.296,-3.2969,-3.2962,-3.3005,-3.3016,-3.3051,-3.306,-3.3068,-3.3076,-3.3065,-3.3106,-3.311,-3.3113,-3.3128,-3.3133,-3.3071,-3.3071,-3.307,-3.307,0,-3.286,-3.2884,-3.2901,-3.2928,-3.2944,-3.2968,-3.2979,-3.2994,-3.2996,-3.3005,-3.3035,-3.3049,-3.3072,-3.308,-3.3081,-3.3115,-3.3111,-3.3105,-3.3092,-3.3119,-3.3133,-3.3138,-3.3072,-3.3072,-3.3071,-3.3071,0,0,-3.2891,-3.2924,-3.293,-3.2944,-3.2968,-3.2986,-3.301,-3.3035,-3.3048,-3.3065,-3.3086,-3.3115,-3.3111,-3.3123,-3.3126,-3.3143,-3.3173,-3.3135,-3.3135,-3.3143,-3.3213,-3.3219,-3.3225,-3.3171,-3.3172,-3.3173,-3.3212,0,-3.2923,-3.2969,-3.2978,-3.3017,-3.304,-3.3042,-3.3063,-3.308,-3.3089,-3.3109,-3.3118,-3.314,-3.3131,-3.3139,-3.3155,-3.3166,-3.3187,-3.3163,-3.3191,-3.3192,-3.3189,-3.3232,-3.3237,-3.3274,-3.3217,-3.3218,-3.3219,0,-3.2966,-3.2989,-3.3031,-3.3055,-3.3065,-3.3084,-3.3108,-3.3127,-3.3146,-3.3152,-3.3168,-3.3169,-3.3195,-3.3181,-3.3216,-3.32,-3.3211,-3.3218,-3.322,-3.3224,-3.3208,-3.3239,-3.3285,-3.3292,-3.3227,-3.3226,-3.3225,0,-3.2987,-3.3027,-3.3058,-3.3069,-3.3097,-3.3111,-3.3123,-3.3142,-3.3157,-3.3177,-3.3187,-3.3209,-3.3221,-3.3238,-3.3246,-3.3235,-3.3282,-3.3268,-3.3288,-3.3288,-3.3299,-3.3298,-3.335,-3.3303,-3.3303,-3.3303,-3.3303,0,-3.3024,-3.305,-3.3069,-3.3088,-3.3118,-3.3128,-3.3157,-3.3168,-3.3185,-3.3206,-3.3208,-3.3228,-3.3236,-3.3257,-3.3263,-3.3293,-3.3298,-3.3303,-3.3305,-3.3304,-3.3304,-3.3313,-3.3312,-3.3305,-3.3304,-3.3304,-3.3304,0,-3.3052,-3.3066,-3.31,-3.3125,-3.3132,-3.3153,-3.3174,-3.3192,-3.3202,-3.3229,-3.3236,-3.3251,-3.3276,-3.3286,-3.3315,-3.3319,-3.3354,-3.3353,-3.3349,-3.335,-3.337,-3.3369,-3.3431,-3.344,-3.3386,-3.3386,-3.3387,0,-3.3075,-3.3096,-3.3124,-3.314,-3.3153,-3.3177,-3.3194,-3.3204,-3.322,-3.3245,-3.3261,-3.3287,-3.3308,-3.3348,-3.336,-3.3384,-3.3384,-3.3404,-3.3387,-3.3387,-3.3387,-3.3386,-3.3389,-3.3408,-3.3408,-3.3409,-3.3409,0,-3.3116,-3.3122,-3.3146,-3.3173,-3.3193,-3.3214,-3.3234,-3.3247,-3.326,-3.3278,-3.3305,-3.3322,-3.3354,-3.3379,-3.3404,-3.3415,-3.3415,-3.3414,-3.342,-3.3421,-3.3419,-3.3423,-3.3359,-3.3413,-3.3412,-3.3412,-3.3412,-3.3412,-3.3143,-3.3163,-3.3187,-3.3214,-3.3232,-3.3251,-3.3271,-3.3285,-3.3308,-3.3337,-3.3341,-3.337,-3.339,-3.3423,-3.3436,-3.3458,-3.3453,-3.3461,-3.3464,-3.3466,-3.3469,-3.3414,-3.3462,-3.3462,-3.3462,-3.3462,-3.3462,0,-3.3186,-3.3202,-3.3227,-3.3258,-3.3279,-3.3279,-3.3302,-3.332,-3.3346,-3.3366,-3.3388,-3.342,-3.3445,-3.3461,-3.3486,-3.3502,-3.3502,-3.3508,-3.3508,-3.3511,-3.3471,-3.3464,-3.3508,-3.3507,-3.3507,-3.3507,-3.3507,-3.3507,-3.3211,-3.3245,-3.3255,-3.3298,-3.3313,-3.3344,-3.3358,-3.3376,-3.3392,-3.3429,-3.3451,-3.3462,-3.348,-3.3507,-3.3531,-3.3535,-3.3545,-3.3552,-3.3555,-3.3518,-3.3513,-3.3509,-3.3503,-3.3553,-3.3553,-3.3594,-3.3594,-3.3594]}]]